THEMIS A

Last updated on Aug. 7, 2020, 5:35 a.m. UTC

1 30580U 07004A   20218.62000711 -.00000291  00000-0  00000-0 0  9990
2 30580  15.1557  42.3592 8404207  40.2101 358.5168  0.87837624 22476
UTC
Height (km)
Latitude
Longitude
Inclination
Orbital Period
UTC large
Height (km)
Speed (km/s)
/
Latitude / Longitude
Inclination (degrees)
Orbital Period (minutes)
Azimuth
Elevation
Range (km)
Doppler Factor
iOS Compass Heading
iOS Angle

Next 30 passes for location: Hong Kong

Rise time Rise Azimuth (degrees) Set time Set Azimuth (degrees) Duration Max altitude (degrees)

No matching passes for this satellites